GIA1105 WAAA-WIMM

Flight info

Callsign GIA1105
Flight time 3h 1m
Altitude 36000
Route GURNI DCT TANUR DCT GUKNO DCT JATAM A585 PKU DCT MEDIA
Aircraft B77W/H-SDE1E2E3FGHIJ2J3J4J5M1RWXY/LB1D1

Departure

Time 2026-04-27 14:49
Airport Sultan Hasanuddin International Airport (WAAA)

Arrival

Time 2026-04-27 17:50
Airport Kualanamu International Airport (WIMM)
Time Latitude Longitude Altitude Speed Heading
2026-04-27 14:19 -5.07945 119.54841 46 ft 0 kts 120°
2026-04-27 14:37 -5.07940 119.54833 44 ft 3 kts 123°
2026-04-27 14:37 -5.07928 119.54817 44 ft 3 kts 137°
2026-04-27 14:38 -5.07912 119.54805 44 ft 3 kts 156°
2026-04-27 14:38 -5.07893 119.54800 46 ft 3 kts 181°
2026-04-27 14:38 -5.07877 119.54802 41 ft 1 kts 209°
2026-04-27 14:38 -5.07875 119.54803 41 ft 0 kts 210°
2026-04-27 14:40 -5.07877 119.54802 45 ft 1 kts 210°
2026-04-27 14:41 -5.07890 119.54795 46 ft 4 kts 210°
2026-04-27 14:41 -5.07920 119.54777 46 ft 7 kts 210°
2026-04-27 14:41 -5.07964 119.54755 46 ft 7 kts 195°
2026-04-27 14:41 -5.08010 119.54769 46 ft 7 kts 143°
2026-04-27 14:42 -5.08043 119.54808 46 ft 7 kts 126°
2026-04-27 14:42 -5.08085 119.54836 46 ft 8 kts 166°
2026-04-27 14:42 -5.08138 119.54827 46 ft 8 kts 204°
2026-04-27 14:42 -5.08187 119.54801 46 ft 8 kts 208°
2026-04-27 14:43 -5.08235 119.54774 46 ft 8 kts 208°
2026-04-27 14:43 -5.08284 119.54747 46 ft 8 kts 210°
2026-04-27 14:43 -5.08332 119.54719 46 ft 8 kts 210°
2026-04-27 14:43 -5.08380 119.54691 46 ft 8 kts 210°
2026-04-27 14:44 -5.08428 119.54662 46 ft 8 kts 210°
2026-04-27 14:44 -5.08476 119.54634 46 ft 8 kts 210°
2026-04-27 14:44 -5.08523 119.54606 46 ft 8 kts 210°
2026-04-27 14:44 -5.08572 119.54578 46 ft 8 kts 210°
2026-04-27 14:45 -5.08622 119.54550 46 ft 9 kts 210°
2026-04-27 14:45 -5.08677 119.54519 46 ft 9 kts 210°
2026-04-27 14:45 -5.08736 119.54485 46 ft 10 kts 210°
2026-04-27 14:45 -5.08799 119.54449 46 ft 10 kts 210°
2026-04-27 14:46 -5.08861 119.54413 46 ft 10 kts 210°
2026-04-27 14:46 -5.08925 119.54376 46 ft 11 kts 210°
2026-04-27 14:46 -5.08992 119.54337 46 ft 12 kts 210°
2026-04-27 14:46 -5.09055 119.54301 46 ft 9 kts 210°
2026-04-27 14:47 -5.09115 119.54281 46 ft 9 kts 182°
2026-04-27 14:47 -5.09170 119.54311 46 ft 9 kts 131°
2026-04-27 14:47 -5.09199 119.54368 46 ft 9 kts 101°
2026-04-27 14:47 -5.09178 119.54428 47 ft 9 kts 47°
2026-04-27 14:48 -5.09147 119.54452 47 ft 0 kts 32°
2026-04-27 14:48 -5.08665 119.54731 47 ft 113 kts 30°
2026-04-27 14:48 -5.07778 119.55250 47 ft 178 kts 32°
2026-04-27 14:49 -5.06683 119.55919 579 ft 187 kts 32°
2026-04-27 14:49 -5.05556 119.56607 1372 ft 191 kts 32°
2026-04-27 14:49 -5.04411 119.57310 2052 ft 199 kts 32°
2026-04-27 14:49 -5.03128 119.58053 2280 ft 228 kts 24°
2026-04-27 14:50 -5.01487 119.58400 2516 ft 254 kts
2026-04-27 14:50 -4.99684 119.58345 3185 ft 264 kts 358°
2026-04-27 14:50 -4.97826 119.58287 4033 ft 269 kts 358°
2026-04-27 14:50 -4.95925 119.58128 4951 ft 272 kts 353°
2026-04-27 14:51 -4.94066 119.57749 5739 ft 276 kts 342°
2026-04-27 14:51 -4.92254 119.57051 6529 ft 281 kts 338°
2026-04-27 14:51 -4.90437 119.56307 7362 ft 283 kts 339°
2026-04-27 14:51 -4.89219 119.55832 7914 ft 284 kts 339°
2026-04-27 14:52 -4.86741 119.54910 8988 ft 289 kts 340°
2026-04-27 14:52 -4.85462 119.54445 9521 ft 291 kts 341°
2026-04-27 14:52 -4.82935 119.53431 10398 ft 298 kts 328°
2026-04-27 14:52 -4.81854 119.52521 10536 ft 316 kts 309°
2026-04-27 14:53 -4.80803 119.50511 10722 ft 338 kts 290°
2026-04-27 14:53 -4.79972 119.48207 10896 ft 364 kts 290°
2026-04-27 14:53 -4.79107 119.45773 11432 ft 377 kts 290°
2026-04-27 14:53 -4.78213 119.43262 12171 ft 386 kts 290°
2026-04-27 14:54 -4.77303 119.40721 13064 ft 390 kts 290°
2026-04-27 14:54 -4.76374 119.38146 13922 ft 395 kts 290°
2026-04-27 14:54 -4.75425 119.35538 14699 ft 400 kts 290°
2026-04-27 14:54 -4.74462 119.32904 15453 ft 405 kts 291°
2026-04-27 14:55 -4.73486 119.30240 16202 ft 410 kts 291°
2026-04-27 14:55 -4.72493 119.27540 16839 ft 416 kts 291°
2026-04-27 14:55 -4.71489 119.24809 16877 ft 419 kts 291°
2026-04-27 14:55 -4.70480 119.22068 16900 ft 416 kts 291°
2026-04-27 14:56 -4.69480 119.19349 16958 ft 418 kts 291°
2026-04-27 14:56 -4.68466 119.16595 17608 ft 423 kts 291°
2026-04-27 14:56 -4.67446 119.13822 18415 ft 425 kts 291°
2026-04-27 14:56 -4.66417 119.11024 19098 ft 428 kts 291°
2026-04-27 14:57 -4.65381 119.08206 19693 ft 434 kts 291°
2026-04-27 14:57 -4.64328 119.05345 20280 ft 440 kts 291°
2026-04-27 14:57 -4.63266 119.02456 20894 ft 445 kts 291°
2026-04-27 14:57 -4.62189 118.99529 21518 ft 449 kts 291°
2026-04-27 14:58 -4.61106 118.96586 22155 ft 453 kts 291°
2026-04-27 14:58 -4.60011 118.93610 22771 ft 457 kts 291°
2026-04-27 14:58 -4.58907 118.90609 23346 ft 462 kts 291°
2026-04-27 14:58 -4.57790 118.87573 23823 ft 466 kts 291°
2026-04-27 14:59 -4.56663 118.84510 24313 ft 470 kts 291°
2026-04-27 14:59 -4.55527 118.81425 24805 ft 474 kts 291°
2026-04-27 14:59 -4.54381 118.78313 25296 ft 477 kts 291°
2026-04-27 14:59 -4.53229 118.75185 25764 ft 481 kts 291°
2026-04-27 15:00 -4.52069 118.72035 26222 ft 484 kts 291°
2026-04-27 15:00 -4.50898 118.68856 26671 ft 488 kts 291°
2026-04-27 15:00 -4.49718 118.65651 27115 ft 491 kts 291°
2026-04-27 15:00 -4.48531 118.62431 27607 ft 494 kts 291°
2026-04-27 15:01 -4.47337 118.59189 28060 ft 497 kts 291°
2026-04-27 15:01 -4.46136 118.55929 28501 ft 501 kts 291°
2026-04-27 15:01 -4.44923 118.52640 28913 ft 504 kts 291°
2026-04-27 15:01 -4.43702 118.49327 29310 ft 508 kts 291°
2026-04-27 15:02 -4.42477 118.46003 29730 ft 511 kts 291°
2026-04-27 15:02 -4.41242 118.42654 30107 ft 513 kts 291°
2026-04-27 15:02 -4.40002 118.39290 30436 ft 515 kts 291°
2026-04-27 15:02 -4.38757 118.35911 30752 ft 518 kts 291°
2026-04-27 15:03 -4.37511 118.32522 31059 ft 519 kts 291°
2026-04-27 15:03 -4.36261 118.29120 31487 ft 518 kts 291°
2026-04-27 15:03 -4.35037 118.25783 31963 ft 516 kts 291°
2026-04-27 15:03 -4.33785 118.22374 32457 ft 514 kts 291°
2026-04-27 15:04 -4.32553 118.19020 32893 ft 513 kts 291°
2026-04-27 15:04 -4.31321 118.15667 33329 ft 512 kts 291°
2026-04-27 15:04 -4.30109 118.12372 33762 ft 511 kts 291°
2026-04-27 15:04 -4.28867 118.08994 34162 ft 509 kts 291°
2026-04-27 15:05 -4.27641 118.05662 34564 ft 507 kts 291°
2026-04-27 15:05 -4.26431 118.02371 34999 ft 504 kts 291°
2026-04-27 15:05 -4.25234 117.99115 35388 ft 503 kts 291°
2026-04-27 15:05 -4.24010 117.95790 35741 ft 502 kts 291°
2026-04-27 15:06 -4.22799 117.92498 35897 ft 505 kts 291°
2026-04-27 15:06 -4.21582 117.89195 35881 ft 507 kts 291°
2026-04-27 15:06 -4.19153 117.82593 35875 ft 502 kts 291°
2026-04-27 15:07 -4.16743 117.76049 35882 ft 499 kts 291°
2026-04-27 15:07 -4.14343 117.69533 35886 ft 498 kts 291°
2026-04-27 15:08 -4.11959 117.63060 35884 ft 499 kts 291°
2026-04-27 15:08 -4.09539 117.56495 35889 ft 500 kts 291°
2026-04-27 15:09 -4.07127 117.49951 35887 ft 501 kts 291°
2026-04-27 15:09 -4.04713 117.43403 35889 ft 501 kts 291°
2026-04-27 15:10 -4.02297 117.36852 35885 ft 502 kts 291°
2026-04-27 15:10 -3.99880 117.30297 35883 ft 501 kts 291°
2026-04-27 15:11 -3.97541 117.23720 35878 ft 501 kts 287°
2026-04-27 15:11 -3.95685 117.16985 35887 ft 501 kts 285°
2026-04-27 15:12 -3.93892 117.10243 35882 ft 501 kts 285°
2026-04-27 15:12 -3.92080 117.03502 35884 ft 501 kts 285°
2026-04-27 15:13 -3.90248 116.96766 35887 ft 501 kts 285°
2026-04-27 15:13 -3.88408 116.90034 35883 ft 501 kts 285°
2026-04-27 15:14 -3.86567 116.83296 35886 ft 502 kts 285°
2026-04-27 15:14 -3.84726 116.76557 35887 ft 502 kts 285°
2026-04-27 15:15 -3.82881 116.69804 35885 ft 503 kts 285°
2026-04-27 15:15 -3.81035 116.63048 35887 ft 503 kts 285°
2026-04-27 15:16 -3.79189 116.56293 35885 ft 503 kts 285°
2026-04-27 15:16 -3.77338 116.49525 35888 ft 504 kts 285°
2026-04-27 15:17 -3.75488 116.42760 35891 ft 504 kts 285°
2026-04-27 15:17 -3.73635 116.35990 35885 ft 504 kts 285°
2026-04-27 15:18 -3.71781 116.29216 35888 ft 504 kts 285°
2026-04-27 15:18 -3.69928 116.22448 35883 ft 504 kts 285°
2026-04-27 15:19 -3.68073 116.15675 35879 ft 504 kts 285°
2026-04-27 15:19 -3.66217 116.08902 35879 ft 504 kts 285°
2026-04-27 15:20 -3.64363 116.02137 35875 ft 504 kts 285°
2026-04-27 15:20 -3.62510 115.95378 35877 ft 503 kts 285°
2026-04-27 15:21 -3.60657 115.88622 35876 ft 503 kts 285°
2026-04-27 15:21 -3.58804 115.81868 35876 ft 503 kts 285°
2026-04-27 15:22 -3.56951 115.75117 35877 ft 503 kts 285°
2026-04-27 15:22 -3.55100 115.68374 35877 ft 503 kts 285°
2026-04-27 15:23 -3.53248 115.61626 35879 ft 502 kts 285°
2026-04-27 15:23 -3.51396 115.54886 35876 ft 502 kts 285°
2026-04-27 15:24 -3.49556 115.48185 35874 ft 502 kts 285°
2026-04-27 15:24 -3.47704 115.41447 35871 ft 502 kts 285°
2026-04-27 15:25 -3.45851 115.34706 35874 ft 502 kts 285°
2026-04-27 15:25 -3.43998 115.27971 35881 ft 501 kts 285°
2026-04-27 15:26 -3.42146 115.21237 35864 ft 501 kts 285°
2026-04-27 15:26 -3.40298 115.14521 35866 ft 501 kts 285°
2026-04-27 15:27 -3.38448 115.07800 35858 ft 501 kts 285°
2026-04-27 15:27 -3.36599 115.01082 35860 ft 500 kts 285°
2026-04-27 15:28 -3.34750 114.94368 35855 ft 500 kts 285°
2026-04-27 15:28 -3.32903 114.87664 35855 ft 499 kts 285°
2026-04-27 15:29 -3.31057 114.80963 35856 ft 499 kts 285°
2026-04-27 15:29 -3.29510 114.75353 35857 ft 499 kts 285°
2026-04-27 15:30 -3.27663 114.68654 35856 ft 499 kts 285°
2026-04-27 15:30 -3.25818 114.61963 35856 ft 499 kts 285°
2026-04-27 15:31 -3.23972 114.55269 35854 ft 499 kts 285°
2026-04-27 15:31 -3.22123 114.48570 35855 ft 499 kts 285°
2026-04-27 15:32 -3.20276 114.41875 35854 ft 499 kts 285°
2026-04-27 15:32 -3.18425 114.35171 35860 ft 499 kts 285°
2026-04-27 15:33 -3.16571 114.28459 35860 ft 499 kts 286°
2026-04-27 15:33 -3.14721 114.21761 35863 ft 499 kts 286°
2026-04-27 15:34 -3.12871 114.15065 35863 ft 499 kts 286°
2026-04-27 15:34 -3.11020 114.08366 35869 ft 499 kts 286°
2026-04-27 15:35 -3.09179 114.01708 35870 ft 499 kts 286°
2026-04-27 15:35 -3.07328 113.95014 35876 ft 499 kts 286°
2026-04-27 15:36 -3.05479 113.88327 35874 ft 499 kts 286°
2026-04-27 15:36 -3.03626 113.81632 35879 ft 498 kts 286°
2026-04-27 15:37 -3.01779 113.74955 35879 ft 498 kts 286°
2026-04-27 15:37 -2.99929 113.68271 35885 ft 498 kts 286°
2026-04-27 15:38 -2.98078 113.61589 35890 ft 498 kts 286°
2026-04-27 15:38 -2.96229 113.54910 35891 ft 498 kts 286°
2026-04-27 15:39 -2.94378 113.48227 35889 ft 498 kts 286°
2026-04-27 15:39 -2.92526 113.41544 35893 ft 498 kts 286°
2026-04-27 15:40 -2.90673 113.34860 35893 ft 499 kts 286°
2026-04-27 15:40 -2.88819 113.28170 35894 ft 499 kts 286°
2026-04-27 15:41 -2.86963 113.21476 35893 ft 500 kts 286°
2026-04-27 15:41 -2.85105 113.14777 35894 ft 500 kts 286°
2026-04-27 15:42 -2.83243 113.08066 35891 ft 500 kts 286°
2026-04-27 15:42 -2.81381 113.01354 35895 ft 501 kts 286°
2026-04-27 15:43 -2.79518 112.94645 35897 ft 501 kts 286°
2026-04-27 15:43 -2.77655 112.87934 35896 ft 501 kts 286°
2026-04-27 15:44 -2.75792 112.81222 35891 ft 501 kts 286°
2026-04-27 15:44 -2.73930 112.74519 35893 ft 500 kts 285°
2026-04-27 15:45 -2.72070 112.67826 35889 ft 499 kts 285°
2026-04-27 15:45 -2.70211 112.61135 35890 ft 498 kts 285°
2026-04-27 15:46 -2.68355 112.54458 35891 ft 498 kts 285°
2026-04-27 15:46 -2.66502 112.47789 35890 ft 497 kts 285°
2026-04-27 15:47 -2.64647 112.41120 35889 ft 498 kts 285°
2026-04-27 15:47 -2.62793 112.34452 35893 ft 498 kts 285°
2026-04-27 15:48 -2.60935 112.27775 35890 ft 498 kts 285°
2026-04-27 15:49 -2.58146 112.17752 35895 ft 499 kts 285°
2026-04-27 15:49 -2.56283 112.11057 35892 ft 499 kts 286°
2026-04-27 15:50 -2.54418 112.04361 35896 ft 500 kts 286°
2026-04-27 15:50 -2.52554 111.97668 35893 ft 500 kts 286°
2026-04-27 15:51 -2.50689 111.90970 35893 ft 500 kts 286°
2026-04-27 15:51 -2.48825 111.84278 35894 ft 499 kts 286°
2026-04-27 15:52 -2.46961 111.77591 35893 ft 500 kts 285°
2026-04-27 15:52 -2.45097 111.70899 35898 ft 500 kts 285°
2026-04-27 15:53 -2.43227 111.64193 35892 ft 500 kts 285°
2026-04-27 15:53 -2.41359 111.57492 35895 ft 501 kts 285°
2026-04-27 15:54 -2.39489 111.50787 35891 ft 501 kts 285°
2026-04-27 15:54 -2.37615 111.44068 35893 ft 501 kts 285°
2026-04-27 15:55 -2.35746 111.37369 35897 ft 501 kts 285°
2026-04-27 15:55 -2.33873 111.30656 35892 ft 501 kts 285°
2026-04-27 15:56 -2.32000 111.23943 35898 ft 501 kts 285°
2026-04-27 15:56 -2.30127 111.17234 35898 ft 501 kts 285°
2026-04-27 15:57 -2.28255 111.10527 35894 ft 501 kts 286°
2026-04-27 15:57 -2.26383 111.03822 35896 ft 501 kts 286°
2026-04-27 15:58 -2.24509 110.97110 35895 ft 501 kts 286°
2026-04-27 15:58 -2.22734 110.90330 35896 ft 501 kts 284°
2026-04-27 15:59 -2.21140 110.83599 35897 ft 501 kts 283°
2026-04-27 15:59 -2.19530 110.76778 35891 ft 501 kts 284°
2026-04-27 16:00 -2.17912 110.70043 35898 ft 502 kts 284°
2026-04-27 16:00 -2.16268 110.63261 35899 ft 502 kts 284°
2026-04-27 16:01 -2.14617 110.56467 35898 ft 503 kts 284°
2026-04-27 16:01 -2.12968 110.49672 35896 ft 503 kts 284°
2026-04-27 16:02 -2.11320 110.42876 35892 ft 503 kts 284°
2026-04-27 16:02 -2.09672 110.36082 35893 ft 503 kts 284°
2026-04-27 16:03 -2.08024 110.29291 35893 ft 503 kts 284°
2026-04-27 16:03 -2.06376 110.22500 35894 ft 502 kts 284°
2026-04-27 16:04 -2.04727 110.15711 35890 ft 502 kts 284°
2026-04-27 16:04 -2.03081 110.08928 35892 ft 502 kts 284°
2026-04-27 16:05 -2.01435 110.02153 35886 ft 501 kts 284°
2026-04-27 16:05 -1.99790 109.95380 35887 ft 501 kts 284°
2026-04-27 16:06 -1.98147 109.88616 35888 ft 500 kts 284°
2026-04-27 16:06 -1.96780 109.82992 35887 ft 500 kts 284°
2026-04-27 16:07 -1.95126 109.76182 35883 ft 501 kts 284°
2026-04-27 16:07 -1.93491 109.69458 35890 ft 502 kts 284°
2026-04-27 16:08 -1.91830 109.62628 35892 ft 503 kts 284°
2026-04-27 16:08 -1.90177 109.55827 35892 ft 504 kts 284°
2026-04-27 16:09 -1.88520 109.49016 35891 ft 504 kts 284°
2026-04-27 16:09 -1.86033 109.38789 35890 ft 505 kts 284°
2026-04-27 16:10 -1.82711 109.25139 35887 ft 505 kts 284°
2026-04-27 16:11 -1.80219 109.14901 35882 ft 505 kts 284°
2026-04-27 16:12 -1.77729 109.04673 35887 ft 504 kts 284°
2026-04-27 16:13 -1.75243 108.94468 35887 ft 504 kts 284°
2026-04-27 16:13 -1.72754 108.84247 35888 ft 504 kts 284°
2026-04-27 16:14 -1.69440 108.70648 35883 ft 503 kts 284°
2026-04-27 16:15 -1.66130 108.57067 35884 ft 502 kts 284°
2026-04-27 16:16 -1.62824 108.43507 35885 ft 502 kts 284°
2026-04-27 16:17 -1.59520 108.29961 35885 ft 501 kts 284°
2026-04-27 16:18 -1.56217 108.16423 35883 ft 501 kts 284°
2026-04-27 16:19 -1.54564 108.09648 35883 ft 502 kts 284°
2026-04-27 16:20 -1.51256 107.96094 35886 ft 502 kts 284°
2026-04-27 16:21 -1.48775 107.85931 35886 ft 502 kts 284°
2026-04-27 16:22 -1.45463 107.72368 35886 ft 502 kts 284°
2026-04-27 16:22 -1.42978 107.62192 35887 ft 502 kts 284°
2026-04-27 16:23 -1.40492 107.52016 35885 ft 503 kts 284°
2026-04-27 16:24 -1.38834 107.45226 35884 ft 503 kts 284°
2026-04-27 16:25 -1.36333 107.31513 35888 ft 502 kts 273°
2026-04-27 16:26 -1.35528 107.17609 35877 ft 501 kts 273°
2026-04-27 16:27 -1.34636 107.03724 35881 ft 500 kts 274°
2026-04-27 16:28 -1.33497 106.86391 35880 ft 500 kts 274°
2026-04-27 16:29 -1.32361 106.69059 35877 ft 500 kts 274°
2026-04-27 16:30 -1.31446 106.55094 35884 ft 503 kts 274°
2026-04-27 16:31 -1.30296 106.37584 35883 ft 506 kts 274°
2026-04-27 16:32 -1.29605 106.27067 35883 ft 506 kts 274°
2026-04-27 16:33 -1.28914 106.16554 35879 ft 505 kts 274°
2026-04-27 16:33 -1.28453 106.09550 35879 ft 505 kts 274°
2026-04-27 16:34 -1.27993 106.02559 35880 ft 504 kts 274°
2026-04-27 16:34 -1.27533 105.95573 35883 ft 503 kts 274°
2026-04-27 16:35 -1.27075 105.88606 35879 ft 502 kts 274°
2026-04-27 16:36 -1.26388 105.78182 35882 ft 501 kts 274°
2026-04-27 16:36 -1.25442 105.71303 35874 ft 500 kts 286°
2026-04-27 16:37 -1.22797 105.64910 35877 ft 499 kts 300°
2026-04-27 16:37 -1.19334 105.58900 35883 ft 499 kts 301°
2026-04-27 16:38 -1.15857 105.52887 35886 ft 500 kts 300°
2026-04-27 16:38 -1.12519 105.46794 35876 ft 500 kts 293°
2026-04-27 16:39 -1.10135 105.40259 35892 ft 500 kts 289°
2026-04-27 16:39 -1.07832 105.33690 35884 ft 501 kts 289°
2026-04-27 16:40 -1.05539 105.27121 35877 ft 501 kts 289°
2026-04-27 16:40 -1.03247 105.20534 35880 ft 501 kts 289°
2026-04-27 16:41 -1.01346 105.15060 35881 ft 502 kts 289°
2026-04-27 16:41 -0.98673 105.07362 35879 ft 502 kts 289°
2026-04-27 16:42 -0.96389 105.00779 35877 ft 501 kts 289°
2026-04-27 16:42 -0.94490 104.95305 35876 ft 501 kts 289°
2026-04-27 16:43 -0.92213 104.88722 35882 ft 502 kts 289°
2026-04-27 16:43 -0.89946 104.82122 35878 ft 502 kts 289°
2026-04-27 16:44 -0.87683 104.75511 35877 ft 503 kts 289°
2026-04-27 16:44 -0.85420 104.68895 35877 ft 503 kts 289°
2026-04-27 16:45 -0.83158 104.62275 35877 ft 503 kts 289°
2026-04-27 16:45 -0.80880 104.55608 35876 ft 503 kts 289°
2026-04-27 16:46 -0.78635 104.49031 35877 ft 503 kts 289°
2026-04-27 16:46 -0.76360 104.42363 35876 ft 503 kts 289°
2026-04-27 16:47 -0.74103 104.35749 35876 ft 503 kts 289°
2026-04-27 16:47 -0.71844 104.29121 35872 ft 503 kts 289°
2026-04-27 16:48 -0.69588 104.22506 35875 ft 503 kts 289°
2026-04-27 16:48 -0.67331 104.15889 35874 ft 503 kts 289°
2026-04-27 16:49 -0.63942 104.05963 35874 ft 503 kts 289°
2026-04-27 16:49 -0.61686 103.99356 35874 ft 503 kts 289°
2026-04-27 16:50 -0.59444 103.92787 35874 ft 503 kts 289°
2026-04-27 16:50 -0.57171 103.86129 35874 ft 503 kts 289°
2026-04-27 16:51 -0.54925 103.79564 35874 ft 502 kts 289°
2026-04-27 16:51 -0.52662 103.72964 35873 ft 502 kts 289°
2026-04-27 16:52 -0.49811 103.66617 35882 ft 501 kts 300°
2026-04-27 16:52 -0.46106 103.60730 35876 ft 500 kts 305°
2026-04-27 16:53 -0.41780 103.55310 35875 ft 499 kts 315°
2026-04-27 16:53 -0.36822 103.50452 35878 ft 499 kts 317°
2026-04-27 16:54 -0.31752 103.45715 35874 ft 499 kts 318°
2026-04-27 16:54 -0.26666 103.40999 35873 ft 499 kts 318°
2026-04-27 16:55 -0.21572 103.36289 35871 ft 499 kts 318°
2026-04-27 16:55 -0.16469 103.31576 35871 ft 499 kts 318°
2026-04-27 16:56 -0.11370 103.26868 35871 ft 499 kts 318°
2026-04-27 16:56 -0.06270 103.22160 35873 ft 499 kts 318°
2026-04-27 16:57 -0.01170 103.17451 35871 ft 499 kts 318°
2026-04-27 16:57 0.03926 103.12743 35864 ft 499 kts 318°
2026-04-27 16:58 0.09019 103.08014 35872 ft 500 kts 318°
2026-04-27 16:58 0.14109 103.03271 35868 ft 500 kts 318°
2026-04-27 16:59 0.19199 102.98521 35869 ft 501 kts 318°
2026-04-27 16:59 0.24294 102.93763 35868 ft 501 kts 318°
2026-04-27 17:00 0.32207 102.86932 35875 ft 500 kts 322°
2026-04-27 17:01 0.37162 102.82038 35871 ft 503 kts 309°
2026-04-27 17:01 0.41091 102.76259 35872 ft 504 kts 301°
2026-04-27 17:02 0.44488 102.70140 35869 ft 504 kts 298°
2026-04-27 17:02 0.47823 102.63983 35868 ft 504 kts 299°
2026-04-27 17:03 0.51214 102.57860 35871 ft 503 kts 300°
2026-04-27 17:03 0.54650 102.51765 35867 ft 503 kts 300°
2026-04-27 17:04 0.58100 102.45685 35866 ft 503 kts 300°
2026-04-27 17:04 0.61549 102.39605 35873 ft 502 kts 300°
2026-04-27 17:05 0.64989 102.33535 35868 ft 502 kts 300°
2026-04-27 17:05 0.68428 102.27463 35869 ft 502 kts 300°
2026-04-27 17:06 0.71868 102.21388 35871 ft 502 kts 300°
2026-04-27 17:06 0.75304 102.15319 35861 ft 502 kts 300°
2026-04-27 17:07 0.78748 102.09237 35870 ft 503 kts 300°
2026-04-27 17:07 0.82192 102.03156 35869 ft 503 kts 300°
2026-04-27 17:08 0.85646 101.97055 35871 ft 504 kts 300°
2026-04-27 17:08 0.89104 101.90949 35869 ft 505 kts 300°
2026-04-27 17:09 0.92567 101.84833 35867 ft 506 kts 300°
2026-04-27 17:09 0.96027 101.78720 35867 ft 506 kts 300°
2026-04-27 17:10 0.99495 101.72594 35863 ft 506 kts 300°
2026-04-27 17:10 1.02955 101.66482 35865 ft 505 kts 300°
2026-04-27 17:11 1.06416 101.60368 35865 ft 505 kts 300°
2026-04-27 17:11 1.11606 101.51200 35865 ft 505 kts 300°
2026-04-27 17:12 1.16796 101.42029 35867 ft 506 kts 300°
2026-04-27 17:13 1.20259 101.35910 35863 ft 506 kts 300°
2026-04-27 17:13 1.23726 101.29782 35867 ft 507 kts 300°
2026-04-27 17:14 1.27195 101.23653 35864 ft 506 kts 300°
2026-04-27 17:14 1.30658 101.17532 35863 ft 506 kts 300°
2026-04-27 17:15 1.34119 101.11415 35861 ft 505 kts 300°
2026-04-27 17:15 1.37574 101.05308 35863 ft 504 kts 300°
2026-04-27 17:16 1.41026 100.99205 35864 ft 504 kts 300°
2026-04-27 17:16 1.44475 100.93108 35863 ft 504 kts 300°
2026-04-27 17:17 1.47925 100.87007 35863 ft 504 kts 300°
2026-04-27 17:17 1.51373 100.80911 35864 ft 504 kts 300°
2026-04-27 17:18 1.56542 100.71769 35866 ft 504 kts 300°
2026-04-27 17:18 1.59410 100.66698 35867 ft 504 kts 300°
2026-04-27 17:19 1.62858 100.60599 35867 ft 504 kts 300°
2026-04-27 17:19 1.66305 100.54501 35862 ft 504 kts 300°
2026-04-27 17:20 1.69762 100.48386 35870 ft 505 kts 300°
2026-04-27 17:20 1.73213 100.42280 35870 ft 505 kts 300°
2026-04-27 17:21 1.76670 100.36165 35847 ft 506 kts 300°
2026-04-27 17:21 1.78445 100.33023 35046 ft 518 kts 300°
2026-04-27 17:21 1.80215 100.29891 34496 ft 515 kts 300°
2026-04-27 17:22 1.81944 100.26831 33962 ft 510 kts 300°
2026-04-27 17:22 1.83703 100.23717 33356 ft 507 kts 300°
2026-04-27 17:22 1.85429 100.20660 32806 ft 502 kts 300°
2026-04-27 17:22 1.87140 100.17631 32245 ft 498 kts 300°
2026-04-27 17:23 1.88834 100.14633 31734 ft 493 kts 301°
2026-04-27 17:23 1.90514 100.11658 31210 ft 489 kts 301°
2026-04-27 17:23 1.92157 100.08749 30712 ft 485 kts 301°
2026-04-27 17:23 1.93814 100.05830 30173 ft 481 kts 302°
2026-04-27 17:24 1.95776 100.03146 29582 ft 473 kts 316°
2026-04-27 17:24 1.98194 100.00970 29057 ft 466 kts 321°
2026-04-27 17:24 2.00698 99.98866 28508 ft 461 kts 321°
2026-04-27 17:24 2.03139 99.96810 27995 ft 456 kts 321°
2026-04-27 17:25 2.05533 99.94754 27489 ft 452 kts 320°
2026-04-27 17:25 2.07857 99.92722 26997 ft 448 kts 320°
2026-04-27 17:25 2.10207 99.90640 26491 ft 444 kts 320°
2026-04-27 17:25 2.12475 99.88621 26010 ft 440 kts 320°
2026-04-27 17:26 2.14750 99.86591 25523 ft 437 kts 320°
2026-04-27 17:26 2.17014 99.84572 25027 ft 435 kts 320°
2026-04-27 17:26 2.19265 99.82566 24546 ft 432 kts 320°
2026-04-27 17:26 2.21506 99.80571 24065 ft 430 kts 320°
2026-04-27 17:27 2.23736 99.78586 23584 ft 428 kts 320°
2026-04-27 17:27 2.25956 99.76610 23020 ft 426 kts 320°
2026-04-27 17:27 2.28187 99.74625 22639 ft 420 kts 320°
2026-04-27 17:27 2.30322 99.72728 22330 ft 412 kts 320°
2026-04-27 17:28 2.32449 99.70838 22032 ft 406 kts 320°
2026-04-27 17:28 2.34549 99.68973 21747 ft 402 kts 320°
2026-04-27 17:28 2.38708 99.65280 21193 ft 398 kts 320°
2026-04-27 17:29 2.40774 99.63444 20911 ft 397 kts 320°
2026-04-27 17:29 2.42838 99.61609 20623 ft 395 kts 320°
2026-04-27 17:29 2.44884 99.59791 20344 ft 394 kts 320°
2026-04-27 17:29 2.46936 99.57967 20055 ft 393 kts 320°
2026-04-27 17:30 2.48976 99.56153 19773 ft 393 kts 320°
2026-04-27 17:30 2.53052 99.52530 19227 ft 391 kts 320°
2026-04-27 17:30 2.55083 99.50724 18931 ft 390 kts 320°
2026-04-27 17:31 2.57107 99.48924 18646 ft 389 kts 320°
2026-04-27 17:31 2.59128 99.47127 18363 ft 388 kts 320°
2026-04-27 17:31 2.61142 99.45337 18064 ft 387 kts 320°
2026-04-27 17:31 2.63145 99.43555 17761 ft 384 kts 320°
2026-04-27 17:32 2.65135 99.41785 17476 ft 382 kts 320°
2026-04-27 17:32 2.69073 99.38282 16925 ft 376 kts 320°
2026-04-27 17:32 2.71019 99.36551 16662 ft 373 kts 320°
2026-04-27 17:33 2.72955 99.34829 16382 ft 371 kts 320°
2026-04-27 17:33 2.74876 99.33121 16119 ft 368 kts 320°
2026-04-27 17:33 2.76788 99.31420 15850 ft 366 kts 320°
2026-04-27 17:33 2.78712 99.29708 15583 ft 364 kts 320°
2026-04-27 17:34 2.80579 99.28047 15324 ft 363 kts 320°
2026-04-27 17:34 2.82460 99.26374 15065 ft 361 kts 320°
2026-04-27 17:34 2.84335 99.24705 14805 ft 360 kts 320°
2026-04-27 17:34 2.86206 99.23041 14565 ft 359 kts 320°
2026-04-27 17:35 2.88068 99.21384 14273 ft 358 kts 320°
2026-04-27 17:35 2.89954 99.19705 14032 ft 357 kts 320°
2026-04-27 17:35 2.91811 99.18052 13771 ft 356 kts 320°
2026-04-27 17:35 2.93660 99.16407 13495 ft 356 kts 320°
2026-04-27 17:36 2.95480 99.14786 13220 ft 354 kts 320°
2026-04-27 17:36 2.97318 99.13151 12949 ft 353 kts 320°
2026-04-27 17:36 2.99128 99.11482 12500 ft 355 kts 317°
2026-04-27 17:36 3.00884 99.09747 12053 ft 354 kts 316°
2026-04-27 17:37 3.02616 99.08000 11596 ft 354 kts 316°
2026-04-27 17:37 3.04340 99.06259 11216 ft 350 kts 316°
2026-04-27 17:37 3.06050 99.04539 10817 ft 346 kts 316°
2026-04-27 17:37 3.07696 99.02888 10328 ft 325 kts 316°
2026-04-27 17:38 3.09247 99.01336 9911 ft 306 kts 316°
2026-04-27 17:38 3.10709 98.99876 9499 ft 292 kts 316°
2026-04-27 17:38 3.12155 98.98436 9107 ft 294 kts 316°
2026-04-27 17:38 3.13609 98.96990 8715 ft 295 kts 316°
2026-04-27 17:39 3.15067 98.95539 8316 ft 297 kts 316°
2026-04-27 17:39 3.16542 98.94071 7940 ft 299 kts 316°
2026-04-27 17:39 3.17976 98.92643 7470 ft 285 kts 316°
2026-04-27 17:39 3.19363 98.91261 6859 ft 279 kts 316°
2026-04-27 17:40 3.20733 98.89896 6189 ft 277 kts 316°
2026-04-27 17:40 3.22101 98.88535 5455 ft 276 kts 316°
2026-04-27 17:40 3.23460 98.87182 4764 ft 275 kts 316°
2026-04-27 17:40 3.24815 98.85833 4352 ft 277 kts 316°
2026-04-27 17:41 3.26197 98.84457 4178 ft 277 kts 315°
2026-04-27 17:41 3.27548 98.83110 4013 ft 275 kts 315°
2026-04-27 17:41 3.28910 98.81754 4013 ft 275 kts 315°
2026-04-27 17:41 3.30239 98.80430 3980 ft 263 kts 315°
2026-04-27 17:42 3.31514 98.79171 3905 ft 254 kts 316°
2026-04-27 17:42 3.32781 98.77960 3675 ft 250 kts 317°
2026-04-27 17:42 3.34028 98.76774 3463 ft 245 kts 317°
2026-04-27 17:42 3.35253 98.75609 3272 ft 241 kts 316°
2026-04-27 17:43 3.36455 98.74463 3073 ft 236 kts 316°
2026-04-27 17:43 3.37638 98.73336 2852 ft 233 kts 316°
2026-04-27 17:43 3.38803 98.72225 2707 ft 229 kts 316°
2026-04-27 17:43 3.39952 98.71129 2617 ft 229 kts 316°
2026-04-27 17:44 3.41114 98.70019 2570 ft 232 kts 316°
2026-04-27 17:44 3.42305 98.68901 2479 ft 234 kts 322°
2026-04-27 17:44 3.43757 98.68272 2333 ft 229 kts
2026-04-27 17:44 3.45233 98.68689 2256 ft 217 kts 40°
2026-04-27 17:45 3.46292 98.69684 2185 ft 204 kts 47°
2026-04-27 17:45 3.47290 98.70679 2141 ft 202 kts 47°
2026-04-27 17:45 3.48282 98.71671 2060 ft 200 kts 47°
2026-04-27 17:45 3.49258 98.72650 2015 ft 198 kts 48°
2026-04-27 17:46 3.50228 98.73624 1974 ft 195 kts 47°
2026-04-27 17:46 3.51173 98.74559 1963 ft 182 kts 47°
2026-04-27 17:46 3.52075 98.75421 1967 ft 177 kts 46°
2026-04-27 17:46 3.52963 98.76270 1969 ft 176 kts 47°
2026-04-27 17:47 3.53825 98.77122 1956 ft 171 kts 48°
2026-04-27 17:47 3.54377 98.77671 1938 ft 167 kts 48°
2026-04-27 17:47 3.55428 98.78719 1967 ft 154 kts 48°
2026-04-27 17:47 3.56195 98.79486 1752 ft 155 kts 47°
2026-04-27 17:48 3.56950 98.80240 1574 ft 154 kts 48°
2026-04-27 17:48 3.57711 98.81000 1362 ft 155 kts 47°
2026-04-27 17:48 3.58465 98.81751 1153 ft 153 kts 47°
2026-04-27 17:48 3.59221 98.82506 964 ft 152 kts 47°
2026-04-27 17:49 3.59973 98.83257 770 ft 155 kts 47°
2026-04-27 17:49 3.60740 98.84022 589 ft 157 kts 46°
2026-04-27 17:49 3.61525 98.84805 380 ft 160 kts 44°
2026-04-27 17:49 3.62301 98.85580 183 ft 156 kts 45°
2026-04-27 17:50 3.63073 98.86351 42 ft 153 kts 45°
2026-04-27 17:50 3.64213 98.87489 39 ft 72 kts 45°
2026-04-27 17:50 3.64391 98.87670 40 ft 21 kts 52°
2026-04-27 17:51 3.64452 98.87780 40 ft 13 kts 67°
2026-04-27 17:51 3.64472 98.87838 41 ft 8 kts 74°
2026-04-27 17:51 3.64481 98.87889 42 ft 8 kts 97°
2026-04-27 17:51 3.64460 98.87937 43 ft 8 kts 118°
2026-04-27 17:52 3.64427 98.87979 44 ft 8 kts 131°
2026-04-27 17:52 3.64403 98.88005 44 ft 8 kts 134°
2026-04-27 17:52 3.64364 98.88043 45 ft 8 kts 136°
2026-04-27 17:52 3.64323 98.88083 45 ft 8 kts 136°
2026-04-27 17:53 3.64282 98.88124 45 ft 8 kts 135°
2026-04-27 17:53 3.64240 98.88165 45 ft 8 kts 135°
2026-04-27 17:53 3.64195 98.88202 45 ft 9 kts 161°
2026-04-27 17:53 3.64139 98.88179 45 ft 10 kts 227°
2026-04-27 17:54 3.64092 98.88130 45 ft 10 kts 226°
2026-04-27 17:54 3.64045 98.88082 45 ft 10 kts 226°
2026-04-27 17:54 3.63998 98.88034 45 ft 10 kts 225°
2026-04-27 17:54 3.63949 98.87986 45 ft 10 kts 224°
2026-04-27 17:55 3.63890 98.87964 45 ft 10 kts 162°
2026-04-27 17:55 3.63835 98.88009 45 ft 11 kts 137°
2026-04-27 17:55 3.63790 98.87990 45 ft 7 kts 247°
2026-04-27 17:55 3.63770 98.87965 45 ft 0 kts 229°
2026-04-27 17:56 3.63770 98.87964 44 ft 0 kts 229°